TimeCST,TemperatureF,Dew PointF,Humidity,Sea Level PressureIn,VisibilityMPH,Wind Direction,Wind SpeedMPH,Gust SpeedMPH,PrecipitationIn,Events,Conditions,WindDirDegrees,DateUTC
12:17 AM,17.6,12.2,79,30.11,2.5,NNE,9.2,-,0.01,Snow,Light Snow,30,2012-12-09 06:17:00
12:47 AM,17.6,12.2,79,30.11,2.5,NNE,8.1,-,0.01,Snow,Light Snow,20,2012-12-09 06:47:00
12:55 AM,17.1,12.9,84,30.19,2.0,NNE,9.2,-,0.02,Snow,Light Snow,30,2012-12-09 06:55:00
1:47 AM,17.6,12.2,79,30.12,3.0,NNE,6.9,-,0.01,Snow,Light Snow,30,2012-12-09 07:47:00
1:55 AM,16.0,12.9,88,30.20,2.5,NE,8.1,-,0.01,Snow,Light Snow,40,2012-12-09 07:55:00
2:17 AM,15.8,12.2,86,30.13,3.0,NNE,5.8,-,0.00,Snow,Light Snow,30,2012-12-09 08:17:00
2:38 AM,15.8,12.2,86,30.14,1.8,NNE,6.9,-,0.00,Snow,Light Snow,30,2012-12-09 08:38:00
2:55 AM,16.0,12.0,84,30.22,1.2,NNE,6.9,-,0.01,Snow,Light Snow,30,2012-12-09 08:55:00
3:28 AM,15.8,10.4,79,30.14,2.0,NNE,9.2,-,0.00,Snow,Light Snow,20,2012-12-09 09:28:00
3:45 AM,15.8,10.4,79,30.14,3.0,NNE,6.9,-,0.00,Snow,Light Snow,30,2012-12-09 09:45:00
3:55 AM,15.1,10.9,84,30.22,5.0,NNE,8.1,-,0.01,Snow,Light Snow,30,2012-12-09 09:55:00
4:55 AM,15.1,10.9,84,30.23,4.0,NNE,9.2,-,0.00,Snow,Light Snow,20,2012-12-09 10:55:00
5:13 AM,14.0,10.4,86,30.15,2.5,NNE,9.2,-,0.00,Snow,Light Snow,20,2012-12-09 11:13:00
5:23 AM,14.0,10.4,86,30.15,4.0,NNE,9.2,-,0.00,Snow,Light Snow,20,2012-12-09 11:23:00
5:55 AM,14.0,10.0,84,30.24,7.0,NNE,9.2,-,0.00,,Overcast,20,2012-12-09 11:55:00
6:55 AM,12.9,9.0,84,30.25,3.0,NNE,9.2,-,0.00,Snow,Light Snow,20,2012-12-09 12:55:00
7:55 AM,12.9,8.1,81,30.27,3.0,North,10.4,17.3,0.00,Snow,Light Snow,10,2012-12-09 13:55:00
8:55 AM,12.0,7.0,80,30.28,4.0,North,8.1,-,0.00,,Haze,10,2012-12-09 14:55:00
9:55 AM,12.0,7.0,80,30.29,5.0,North,9.2,-,0.00,,Haze,10,2012-12-09 15:55:00
10:55 AM,12.0,6.1,77,30.29,5.0,North,11.5,-,0.00,,Haze,10,2012-12-09 16:55:00
11:55 AM,12.0,6.1,77,30.27,5.0,North,11.5,-,N/A,,Haze,350,2012-12-09 17:55:00
12:55 PM,10.9,5.0,77,30.25,10.0,North,13.8,-,0.00,Snow,Light Snow,360,2012-12-09 18:55:00
1:29 PM,12.2,6.8,79,30.16,2.5,North,12.7,-,0.01,Snow,Light Snow,360,2012-12-09 19:29:00
1:40 PM,12.2,5.0,73,30.15,3.0,North,15.0,-,0.01,Snow,Light Snow,360,2012-12-09 19:40:00
1:55 PM,10.9,5.0,77,30.23,5.0,North,12.7,19.6,0.01,Snow,Light Snow,360,2012-12-09 19:55:00
2:55 PM,10.0,3.9,76,30.22,9.0,North,13.8,-,0.00,Snow,Light Snow,350,2012-12-09 20:55:00
3:55 PM,9.0,1.9,73,30.23,10.0,North,10.4,-,0.00,,Partly Cloudy,360,2012-12-09 21:55:00
4:55 PM,8.1,-0.0,70,30.24,10.0,North,12.7,19.6,N/A,,Overcast,10,2012-12-09 22:55:00
5:55 PM,8.1,1.0,73,30.24,10.0,North,10.4,-,N/A,,Overcast,360,2012-12-09 23:55:00
6:55 PM,7.0,-0.0,73,30.22,10.0,North,11.5,-,N/A,,Mostly Cloudy,360,2012-12-10 00:55:00
7:55 PM,3.9,-0.9,80,30.23,10.0,North,9.2,-,N/A,,Clear,360,2012-12-10 01:55:00
8:22 PM,3.2,-2.2,78,30.13,10.0,North,8.1,-,N/A,,Partly Cloudy,360,2012-12-10 02:22:00
8:55 PM,1.9,-2.9,80,30.22,10.0,North,8.1,-,N/A,,Scattered Clouds,360,2012-12-10 02:55:00
9:09 PM,1.4,-2.2,85,30.11,10.0,North,8.1,-,N/A,,Mostly Cloudy,360,2012-12-10 03:09:00
9:17 PM,1.4,-2.2,85,30.11,7.0,North,9.2,-,N/A,,Mostly Cloudy,360,2012-12-10 03:17:00
9:55 PM,1.0,-2.9,83,30.20,10.0,North,8.1,-,N/A,,Scattered Clouds,350,2012-12-10 03:55:00
10:55 PM,-0.0,-5.1,79,30.18,10.0,North,9.2,-,N/A,,Partly Cloudy,350,2012-12-10 04:55:00
11:55 PM,-2.0,-6.0,83,30.16,10.0,North,8.1,-,N/A,,Scattered Clouds,360,2012-12-10 05:55:00